+ View the NASA Portal
+ Center for Near-Earth Object Studies
IMPORTANT:
The SSD Announcement email list is now available. Major changes are coming in the near future, including possible hostname and/or URL changes. To be notified of such changes, subscribe to this email list.
Please visit
this page
for more details.
Don't show this message again
JPL Small-Body Database Browser
Search:
[
help
]
117493 (2005 CP19)
Classification:
Main-belt Asteroid
SPK-ID:
2117493
[
Ephemeris
|
Orbit Diagram
|
Orbital Elements
|
Mission Design
|
Physical Parameters
|
Discovery Circumstances
|
Close-Approach Data
]
[ show orbit diagram ]
Orbital Elements at Epoch 2458600.5 (2019-Apr-27.0) TDB
Reference:
JPL 14
(heliocentric ecliptic J2000)
Element
Value
Uncertainty (1-sigma)
Units
e
.1887027949586442
4.0413e-08
a
2.390241925228069
1.1689e-08
au
q
1.939196593310202
9.9707e-08
au
i
2.773414531925974
5.0411e-06
deg
node
158.9134525517019
8.732e-05
deg
peri
233.452631145527
8.8283e-05
deg
M
27.49634841070535
1.3321e-05
deg
t
p
2458497.405917511780
(2019-Jan-13.90591751)
4.9692e-05
TDB
period
1349.774491557914
3.70
9.9009e-06
2.711e-08
d
yr
n
.2667112189862817
1.9564e-09
deg/d
Q
2.841287257145936
1.3894e-08
au
Orbit Determination Parameters
# obs. used (total)
570
data-arc span
9136 days (25.01 yr)
first obs. used
1994-01-16
last obs. used
2019-01-21
planetary ephem.
DE431
SB-pert. ephem.
SB431-N16
condition code
0
norm. resid. RMS
.58529
source
ORB
producer
Otto Matic
solution date
2019-Jul-14 00:26:35
Additional Information
Earth MOID
= .945886 au
Jupiter MOID
= 2.59297 au
T_jup
= 3.507
[ show covariance matrix ]
[
Ephemeris
|
Orbit Diagram
|
Orbital Elements
|
Mission Design
|
Physical Parameters
|
Discovery Circumstances
|
Close-Approach Data
]
Physical Parameter Table
Parameter
Symbol
Value
Units
Sigma
Reference
Notes
absolute magnitude
H
16.4
n/a
MPO453645
117493 (2005 CP19)
Discovered 2005-Feb-02 by CSS at Catalina
Reference:
20051019/Numbers.arc
Last Updated:
2005-10-26
[ show close-approach data ]
[
Ephemeris
|
Orbit Diagram
|
Orbital Elements
|
Mission Design
|
Physical Parameters
|
Discovery Circumstances
|
Close-Approach Data
]
2019-Dec-15 21:26 UT
(server date/time)
Site Manager:
Ryan S. Park
Webmaster
:
Alan B. Chamberlin